User: anonymous   Login
Location: Theydon Bois
(51.6750°N, 0.1050°E)
Time: 01:18:48
(UTC+01:00)
Language:

H-2A R/B - Orbit

View from above orbital plane
View from above orbital plane
View from above satellite
View from above satellite

Ground track
Ground track

The orbit data is extracted from the following two-line orbital elements,

1 36105U 09066B   17288.76822391 0.00001200  00000-0  66240-4 0    08
2 36105  97.3207 316.0284 0028660 284.3655  75.6343 15.13630541    01
Epoch (UTC): 15 October 2017 18:26:14
Eccentricity: 0.0028660
inclination: 97.3207°
perigee height: 505 km
apogee height: 545 km
right ascension of ascending node: 316.0284°
argument of perigee: 284.3655°
revolutions per day: 15.13630541
mean anomaly at epoch: 75.6343°
orbit number at epoch: 0

The dashed part of the orbit path shows where the satellite is in the earth's shadow,  

DLR